星链-32121 (STARLINK-32121)

导读

STARLINK-32121是美国SpaceX公司星链星座的成员,于2024年7月27日发射,属于低轨通信卫星。星链项目旨在为全球提供高速宽带互联网服务,尤其覆盖偏远地区。该卫星采用平板设计,搭载Ku/Ka波段通信载荷,配备氪工质霍尔推进器,具备自主避撞能力,寿命末期可主动离轨,在大气层中焚毁,减少太空垃圾。它的入轨进一步扩展了星链星座的全球覆盖范围,提升星座网络服务容量与稳定性。

基本信息
目录编号:
60264
目录名称:
STARLINK-32121
国际标识:
2024-131K
轨道中心:
EARTH
卫星名称:
星链-32121 (STARLINK-32121)
卫星全名:
星链-32121 (STARLINK-32121)
卫星状态:
在轨 (已飞行769 天)
发射日期:
2024-07-27 UTC
国别 :
美国 (US)
星等 :
--
轨道信息
数据来源 国际轨道数据 AOE轨道数据
星历时间 2026-09-04T11:32:43+0800
13小时前
查看轨道信息
2026-09-04T02:00:00+0800
23小时前
查看轨道信息
半长轴 6848.904km 6848.841km
偏心率 0.0001201 0.000163
轨道倾角 53.161° 53.158°
近地点辐角 83.448° 78.758°
升交点赤经 302.642° 304.493°
平近点角 276.666° 247.099°
近地点 469.944km 469.587km
远地点 471.59km 471.821km
周期 94.014分钟 94.012分钟
每日圈数 15.31691 15.317124
详细信息
卫星平台:
Starlink v2.0 mini
运营商:
太空探索技术公司
运营商所在国:
美国
制造商(研发单位):
太空探索技术公司
制造商所在国:
美国
使用方式:
暂无
卫星简介
星链(Starlink)计划是由太空探索技术公司(SpaceX)提出的一个巨型低轨卫星互联网星座项目,计划在2019年至2024年间在太空搭建由约1.2万颗卫星组成的“星链”网络,其中1584颗将部署在地球上空550千米处的近地轨道,并从2020年开始工作。该卫星仍在工作。
2D轨道图
3D轨道图
轨道高度分析图
轨道倾角分析图
轨道综合分析图
查看轨道综合分析图
交会数据列表
事件ID 空间交会对象 最接近时刻(TCA) 交会距离 交会风险概率(CRP) 交会风险指数(CRI) 操作
CDM_260905-105006-026406-539421
2026-09-05T
10:50:54+0000
2.440 km
极远距离
1.832526E-6 低风险 0.4